Wind_Speed
37 48 60 73 85 93 94 93 92 89 88 88 87 86 84 83 83 84 83 83 82 78 74 72 69 67 67 70 73 70 61 50 46 49 52 54 58 60 58 55 53 52 49 46 44 43 43 44 44 43 42 40 38 37 35 33 31 30 29 29 28 28 27 27 26 26 25 23 23 23 23 23 22 21 20 19 19 18 16 15 14 14 14 13 12 10 9
35 45 57 70 82 90 93 93 92 90 89 89 88 87 85 84 84 84 84 84 83 79 75 74 72 69 70 72 73 75 73 63 54 49 46 47 50 56 61 59 56 54 52 49 47 45 43 43 44 44 43 42 41 39 36 35 34 33 32 32 31 31 31 31 30 29 28 27 26 26 26 26 25 24 23 22 22 22 20 18 17 17 17 17 15 14 12
33 43 53 66 79 88 92 93 91 90 89 89 89 88 86 85 84 84 85 85 85 81 76 75 74 71 71 73 75 76 75 72 67 58 50 47 47 48 55 61 59 55 54 51 49 47 45 43 43 44 44 43 42 39 37 36 36 36 35 35 34 34 34 34 34 33 31 30 29 27 27 27 28 28 27 26 24 23 22 21 20 20 20 20 19 18 17
30 41 51 63 76 85 91 92 91 90 89 90 90 89 87 85 85 85 86 86 86 84 77 73 73 73 73 74 75 76 75 73 74 70 61 56 52 46 48 57 61 57 54 53 50 48 47 45 44 44 44 44 42 41 39 39 38 38 38 38 37 37 37 37 37 37 35 33 31 30 28 27 28 29 29 28 27 25 23 22 23 23 23 23 23 23 22
27 37 49 60 73 83 89 91 91 90 90 90 90 89 88 86 85 86 86 86 87 86 80 73 71 71 72 75 76 76 76 74 75 76 71 64 58 50 46 52 59 58 54 53 51 48 46 45 43 43 44 43 42 41 40 40 40 40 41 42 41 41 40 39 39 39 37 35 34 33 31 29 28 28 29 29 30 29 28 26 26 26 26 26 26 26 25
23 33 45 57 70 81 88 91 92 91 91 91 91 90 89 87 86 86 87 86 87 87 82 73 67 65 66 73 78 77 77 77 76 75 74 71 66 59 52 52 57 59 56 53 51 49 46 44 44 43 42 41 40 39 38 38 40 41 43 44 44 44 43 41 41 41 40 39 38 37 35 34 33 31 30 29 30 31 33 33 30 29 29 29 28 27 26
21 28 40 53 66 78 88 92 93 92 92 92 92 92 90 89 87 87 87 86 87 88 84 73 65 62 60 65 74 79 80 80 79 76 74 72 71 68 62 59 59 59 57 54 52 50 47 45 43 42 40 39 39 38 38 38 39 40 42 42 43 44 43 41 40 41 42 42 42 42 40 38 37 36 33 33 33 34 36 36 34 32 31 31 31 30 29
19 25 33 47 62 75 85 92 93 93 93 93 93 93 92 91 89 87 87 87 87 88 85 76 68 64 60 61 68 77 82 83 82 80 77 73 71 69 67 64 62 61 58 56 54 51 49 47 45 40 37 37 37 37 37 38 36 37 40 41 40 40 42 41 39 40 43 44 43 42 42 40 40 40 37 36 37 37 37 36 36 36 35 34 34 33 32
17 23 30 41 57 70 81 90 93 94 94 94 94 94 94 92 90 88 87 87 88 89 87 81 73 67 63 63 67 74 82 85 84 82 81 77 72 69 67 64 63 62 60 58 56 53 50 49 48 43 39 38 40 39 38 39 37 35 38 42 43 43 44 45 43 42 46 46 42 40 41 41 41 42 42 42 42 42 41 39 38 40 40 39 38 38 36
15 20 28 37 50 65 78 87 93 95 95 95 95 95 94 93 91 89 88 89 89 91 91 86 78 74 72 70 70 73 78 85 87 84 82 80 75 70 66 62 61 62 62 61 60 57 53 52 52 49 45 44 46 45 45 45 44 41 41 42 44 46 47 48 47 46 48 49 48 46 45 44 43 43 45 47 45 44 45 43 41 42 42 42 43 43 42
13 16 25 34 44 59 73 84 91 95 96 96 95 95 94 93 91 89 89 90 90 92 94 92 85 82 82 77 74 74 75 79 86 87 83 81 78 73 68 64 61 61 61 61 62 62 59 57 57 54 51 50 51 51 52 52 52 52 52 50 49 51 52 51 50 49 50 53 56 55 53 52 52 52 52 52 49 46 47 47 46 46 45 44 45 46 46
12 14 21 31 40 51 66 80 89 95 97 97 96 95 94 94 93 91 91 92 92 93 96 97 93 89 89 83 78 78 77 74 80 86 85 83 81 77 73 69 65 62 58 57 61 65 65 63 62 59 55 54 55 56 57 57 57 58 60 60 58 58 59 58 54 51 51 55 59 60 57 57 59 58 57 56 55 53 53 52 51 50 49 48 49 49 49
14 14 17 27 37 45 58 73 86 94 97 97 96 96 95 95 94 93 92 92 94 95 97 100 98 94 93 90 82 80 80 74 74 81 85 85 84 81 76 72 69 66 61 60 63 66 66 66 65 64 61 59 60 62 62 63 63 63 63 64 64 63 63 63 60 57 56 58 60 61 60 59 60 60 59 59 60 59 59 57 55 54 54 54 54 54 53
17 16 17 23 34 42 52 66 81 92 96 97 98 97 97 97 95 95 94 93 94 96 97 101 102 99 97 96 88 82 81 77 72 75 82 85 85 84 79 75 72 70 68 68 69 68 67 68 68 68 67 67 66 67 67 67 68 68 68 67 67 66 65 65 64 64 64 64 64 64 63 63 64 64 64 63 62 61 61 59 58 59 61 59 59 59 58
20 19 18 21 31 40 47 58 73 87 94 98 100 99 97 98 97 95 95 93 94 96 97 101 104 103 101 101 96 87 83 80 74 71 76 82 85 85 82 79 76 73 72 72 73 73 72 71 71 71 71 72 72 71 71 71 71 71 71 72 72 72 71 69 68 67 67 68 68 68 68 68 68 68 68 68 66 64 63 62 62 63 64 63 63 65 64
22 21 20 20 27 37 44 52 64 79 91 98 100 100 98 98 97 96 95 95 94 96 97 99 103 105 104 104 102 96 89 84 79 73 72 76 82 85 84 82 80 78 76 73 73 75 77 76 74 72 73 75 77 77 76 75 75 74 74 75 76 77 77 76 74 71 69 69 69 70 70 70 70 69 70 71 70 68 66 65 65 66 67 67 67 69 69
23 22 22 20 25 34 42 48 57 71 86 96 100 100 99 99 98 96 95 95 95 96 97 98 100 103 104 104 104 102 98 92 88 82 74 72 77 82 85 86 84 83 82 80 77 77 78 79 78 76 75 76 79 81 81 80 79 78 78 78 77 78 78 79 78 77 74 72 71 71 71 71 72 71 71 72 73 73 72 71 70 69 69 70 70 71 72
24 23 23 21 23 30 38 46 53 63 77 90 97 100 100 100 99 97 96 96 95 95 96 98 99 100 101 102 101 101 102 100 96 92 86 79 75 78 84 87 88 87 87 86 85 82 80 81 81 81 79 79 80 83 84 84 83 82 83 82 81 80 80 80 80 80 79 77 75 75 75 76 77 77 77 76 77 78 77 76 74 73 72 73 72 72 73
25 25 24 21 21 28 36 43 49 57 68 81 91 98 99 99 98 97 97 95 95 95 96 97 98 98 99 100 99 98 99 99 97 96 94 90 84 79 81 86 89 91 90 90 90 88 86 85 84 84 83 82 82 84 86 87 87 86 86 86 86 85 84 83 83 83 83 82 81 81 82 82 83 84 84 83 82 81 81 80 79 78 77 77 76 75 75
25 26 26 22 21 26 34 41 46 52 60 70 81 88 92 96 97 97 98 96 92 93 96 97 98 98 98 99 100 98 98 97 96 93 94 95 94 88 83 84 87 91 93 94 93 92 90 88 88 87 87 86 86 86 88 90 91 91 91 90 90 89 89 88 87 87 87 87 87 87 87 88 88 89 89 89 88 87 86 86 86 85 83 82 80 79 79
25 27 26 22 20 25 32 39 44 49 53 61 69 71 73 83 86 85 91 97 95 94 98 99 99 99 98 99 100 99 98 98 96 94 92 93 96 96 92 87 86 89 93 95 96 95 94 92 91 90 89 89 89 89 90 91 93 94 95 95 94 93 93 92 92 91 91 91 91 90 90 91 92 92 92 92 92 92 92 91 90 89 87 86 85 84 83
25 26 26 21 18 23 31 37 42 47 48 54 60 58 58 70 73 66 70 86 96 99 100 99 98 99 99 99 100 100 101 100 98 96 95 94 95 97 97 95 92 90 91 94 96 97 97 97 96 94 93 92 93 93 94 94 95 96 97 98 99 98 97 96 95 95 95 95 95 94 93 93 94 94 94 93 93 93 93 94 93 93 92 91 90 89 88
24 25 25 19 16 21 28 35 41 45 46 50 55 55 53 61 68 61 53 59 76 92 100 99 98 100 100 100 100 101 102 103 102 100 99 98 97 97 98 99 98 96 94 94 96 98 98 98 99 99 98 97 97 97 98 99 99 99 99 100 100 101 101 100 99 98 98 98 98 98 98 97 97 97 96 95 94 94 94 94 95 95 94 94 94 93 92
23 24 23 17 14 18 27 35 40 45 49 52 55 56 54 56 64 67 60 49 54 73 90 98 100 101 101 101 102 101 102 104 105 104 103 102 101 101 100 100 101 101 100 98 97 98 99 100 101 102 103 103 102 102 102 103 103 103 102 102 102 102 102 103 103 102 101 101 101 101 102 102 102 102 102 101 100 99 99 98 98 98 98 98 98 97 96
21 22 22 16 12 17 28 38 43 48 55 56 55 56 58 58 62 70 69 59 51 59 75 90 98 101 101 102 103 103 103 104 105 107 106 104 104 105 105 104 103 102 103 103 102 101 100 100 101 102 104 106 107 107 107 107 107 107 107 106 106 105 105 104 104 104 104 103 103 103 103 104 104 104 105 105 104 104 104 103 103 103 102 102 101 100 100
20 20 20 15 12 16 28 41 48 53 58 59 56 55 57 60 65 71 71 64 57 56 63 76 89 97 101 102 103 104 104 104 105 107 108 108 107 106 106 107 107 106 104 105 106 106 105 104 103 103 104 106 108 110 110 111 111 111 112 112 112 111 110 110 109 109 108 108 106 106 105 105 105 106 106 106 106 106 106 105 105 104 104 103 103 103 103
19 19 18 14 11 15 26 41 52 58 60 61 59 57 55 56 64 71 72 68 63 60 60 67 78 89 96 100 102 103 104 105 106 107 108 110 112 111 109 108 109 110 109 108 108 109 109 109 109 109 109 109 110 111 112 113 114 115 115 116 117 117 117 116 116 115 115 115 114 113 112 110 109 109 108 108 108 108 108 108 107 107 106 105 105 105 105
18 18 17 13 10 14 24 38 51 60 63 63 62 60 58 57 62 68 72 71 68 67 66 68 73 80 88 94 99 101 102 104 106 107 108 109 111 113 112 111 110 110 111 113 113 113 112 113 113 113 114 115 115 115 116 117 117 118 118 119 120 120 121 121 121 121 121 121 121 121 121 120 119 117 115 114 113 112 112 112 112 112 111 111 110 109 109
18 17 16 13 10 12 21 35 48 57 64 66 65 63 61 62 64 68 72 74 74 72 72 74 75 77 81 86 92 97 101 103 105 107 108 109 109 110 112 112 112 111 111 112 114 116 116 117 116 115 115 116 117 118 119 120 121 122 123 123 124 124 124 124 124 125 125 126 126 127 128 128 128 127 126 125 123 121 119 118 118 118 117 117 116 116 115
17 17 16 14 11 11 17 30 44 54 61 65 68 67 66 66 67 69 72 75 77 78 78 78 79 79 79 81 84 90 96 101 104 105 106 108 109 109 109 110 111 112 112 111 112 113 115 117 119 119 119 118 118 119 119 121 122 123 124 125 127 127 128 128 128 128 128 128 129 130 131 132 133 134 134 134 133 132 130 129 127 126 125 124 123 123 122
17 17 16 15 12 11 14 23 37 49 57 62 65 67 69 70 71 71 72 73 75 78 80 81 81 82 82 82 83 85 89 95 100 103 104 106 107 108 109 109 109 110 111 112 113 113 114 116 118 120 122 123 123 123 123 123 124 125 125 126 127 128 130 131 132 132 132 132 132 132 133 133 134 135 136 137 138 138 138 138 137 136 135 133 132 131 130
18 17 16 16 14 13 12 16 25 39 51 58 61 63 65 67 69 71 72 73 73 75 76 78 80 82 83 84 85 85 86 89 94 99 102 104 105 107 108 109 109 109 110 111 113 114 115 116 117 119 121 123 125 126 127 128 128 128 129 130 130 131 131 132 133 134 135 136 136 137 137 137 137 138 138 139 140 141 141 142 142 142 142 141 140 140 139
18 17 17 16 15 14 14 13 16 25 37 49 58 62 62 63 63 65 66 68 68 68 68 69 71 75 79 82 84 85 86 87 89 93 97 99 102 104 106 107 108 109 109 110 112 113 115 116 118 119 120 122 124 126 128 129 131 131 132 133 134 134 135 136 136 136 137 137 138 139 140 141 141 141 142 142 143 143 144 144 145 145 145 145 145 145 145
19 18 17 17 15 15 14 14 14 16 22 33 45 55 60 62 62 62 62 62 62 62 61 60 61 63 66 70 74 78 80 82 84 87 91 94 97 100 102 104 106 108 109 109 110 112 113 116 118 119 121 122 124 125 127 129 131 132 134 135 136 137 139 139 140 141 141 141 142 142 143 143 144 145 145 146 146 146 147 147 148 148 148 149 148 149 149
19 19 18 17 16 15 15 15 14 14 16 20 27 37 46 53 58 60 62 62 62 62 61 61 60 59 59 61 64 67 70 74 77 80 84 87 90 93 96 99 102 105 107 109 110 112 113 114 116 118 120 122 123 125 127 129 130 132 134 136 137 139 140 142 143 144 145 145 146 147 147 148 148 149 149 149 150 150 150 150 150 150 151 151 151 151 152
19 19 18 18 17 17 16 16 16 14 14 15 18 23 29 37 44 50 54 57 59 60 60 60 60 60 59 59 59 61 62 65 68 72 75 79 82 86 89 93 96 100 103 105 108 111 113 115 117 118 120 122 123 125 127 128 130 132 133 135 136 138 140 141 143 144 146 147 148 148 149 150 150 151 151 151 151 151 151 151 151 152 152 152 152 152 152
19 20 20 19 18 18 18 19 18 17 15 15 16 17 20 24 29 34 39 44 48 51 54 55 56 57 57 57 58 58 59 60 62 64 67 71 74 78 82 86 90 94 97 100 104 107 109 112 115 118 120 123 125 127 128 130 131 133 134 136 137 138 140 141 142 144 145 146 147 148 149 150 150 150 151 151 151 151 151 151 151 151 151 151 151 151 151
20 20 20 20 20 20 21 21 20 20 18 17 17 17 17 18 20 23 27 30 34 38 42 45 48 50 52 54 55 56 57 59 60 62 64 66 69 72 75 78 82 86 89 93 97 101 104 108 111 114 117 121 124 126 129 131 133 135 137 138 140 141 143 144 145 147 148 148 149 150 150 151 152 152 152 152 152 152 153 153 153 153 153 153 153 154 154
20 20 21 22 22 22 23 23 23 22 21 20 20 19 19 19 19 20 21 23 25 28 31 34 36 39 42 44 47 49 52 55 57 60 62 64 66 68 70 73 76 79 82 86 90 93 97 101 105 109 112 116 119 123 126 129 132 134 137 139 141 143 145 146 148 149 150 151 152 152 153 153 154 154 154 154 154 154 154 154 154 154 154 154 154 154 155
21 21 22 24 24 24 25 25 25 24 24 23 22 22 21 20 20 21 21 22 23 25 27 29 30 32 35 37 40 42 45 48 50 53 55 57 60 62 65 68 71 74 77 80 83 86 90 94 97 101 105 108 112 116 119 123 126 130 133 136 139 141 143 145 147 148 150 151 152 153 154 154 155 155 155 155 156 156 155 155 155 155 155 155 155 155 155
23 23 23 24 26 27 27 27 27 27 27 26 25 23 22 22 22 23 23 24 25 27 28 30 31 33 35 37 39 40 42 44 46 48 50 53 55 58 60 63 66 69 72 75 78 81 84 88 91 94 98 101 104 108 111 115 118 122 125 128 131 134 137 139 141 143 145 147 148 149 150 151 151 152 152 152 153 153 153 153 153 153 152 152 152 152 152
24 24 25 26 27 28 29 30 29 29 28 27 26 25 25 25 25 26 26 27 28 29 30 32 33 35 37 38 39 41 43 44 46 49 51 53 55 58 60 63 65 68 70 73 76 79 82 85 87 90 93 96 99 102 105 108 111 114 116 119 121 124 126 128 130 132 134 135 136 136 137 137 138 138 138 138 138 139 139 139 139 138 138 138 138 138 138
25 26 26 27 28 30 32 32 31 30 29 28 28 27 27 27 28 29 29 30 31 32 32 34 35 36 37 38 40 41 43 46 48 50 53 55 57 60 62 64 67 69 71 74 76 79 81 84 86 89 91 94 96 98 101 103 105 108 110 112 114 116 117 119 120 121 121 122 122 122 122 122 122 122 122 122 123 123 123 123 123 123 123 123 123 124 124
26 27 27 28 29 31 32 33 32 31 31 30 30 30 29 29 30 31 32 32 33 33 34 35 36 37 38 39 41 43 46 48 50 52 55 57 59 61 63 65 66 68 70 73 75 77 79 82 84 86 88 91 93 95 97 99 101 103 105 107 108 110 111 112 112 112 112 112 112 111 111 110 110 109 109 109 110 110 111 111 111 111 112 112 112 113 114
27 27 28 28 29 30 31 32 33 32 32 32 31 31 31 32 33 33 33 34 34 35 36 36 37 38 40 42 44 46 48 50 52 54 56 58 59 61 62 64 65 67 69 71 72 74 76 78 80 82 84 86 88 90 92 94 95 98 99 101 102 103 104 104 104 104 104 104 103 102 101 101 100 99 99 98 98 98 99 99 100 100 100 101 101 102 104
27 27 28 28 29 30 32 32 33 32 32 32 32 33 33 34 34 35 35 35 35 36 37 38 39 40 42 44 46 48 50 52 53 54 56 57 58 60 61 63 64 66 67 68 70 71 73 74 76 77 79 80 82 84 85 87 89 90 92 93 94 95 95 96 96 95 95 94 93 93 92 91 91 90 90 90 89 89 89 89 89 89 90 90 91 92 93
27 27 28 28 29 30 31 31 31 31 31 32 32 33 34 34 35 35 35 35 36 37 38 39 41 42 44 46 47 49 50 51 52 53 55 56 57 59 61 62 63 64 65 66 66 68 69 70 71 72 73 74 75 77 78 80 81 82 83 84 85 85 86 87 87 86 86 85 84 84 83 83 82 82 81 81 81 81 81 81 81 81 82 82 83 83 85
28 29 29 29 29 29 30 30 30 30 31 32 33 34 34 34 34 35 36 37 38 39 40 40 42 43 45 47 48 48 49 50 51 52 54 55 57 58 60 61 62 63 64 64 65 65 66 67 67 67 67 67 68 70 71 72 73 74 74 74 75 75 76 77 77 77 76 76 75 75 75 75 74 74 73 73 73 73 73 73 74 74 75 75 76 77 78
29 29 29 28 28 28 28 29 30 31 32 33 34 34 34 34 35 36 37 38 39 39 40 41 43 44 45 46 47 47 48 49 51 52 53 55 56 58 60 61 63 63 63 64 64 65 65 65 64 63 62 62 63 64 65 65 66 66 66 66 66 66 67 67 68 68 68 68 67 67 67 67 67 66 66 66 66 66 66 66 67 67 68 69 70 71 72
29 28 28 28 29 29 29 29 30 32 33 33 34 34 34 35 36 37 38 38 39 40 41 42 44 44 45 45 46 47 48 49 51 52 53 55 57 59 61 62 63 64 64 64 64 65 65 64 62 61 60 59 59 60 60 60 60 60 59 59 59 59 60 60 60 60 61 61 61 61 61 61 61 61 61 60 60 60 60 60 61 61 62 63 64 65 66
29 29 29 29 29 29 29 30 32 33 33 33 34 34 35 36 36 37 38 39 39 41 42 43 44 44 45 45 46 47 48 49 51 52 54 55 57 59 61 63 64 64 65 65 65 64 63 62 60 58 57 55 55 56 57 57 56 55 55 54 54 54 55 55 55 55 55 55 56 56 56 56 56 56 56 56 55 55 55 56 56 56 57 58 59 60 60
29 29 29 29 29 29 30 32 33 33 33 33 35 36 36 37 37 37 38 39 40 41 43 44 44 44 45 45 46 47 48 50 51 53 54 56 58 60 62 63 65 65 66 66 64 62 61 59 58 55 53 52 52 53 53 53 53 52 51 50 50 50 50 50 50 50 50 50 50 51 51 51 52 51 51 51 51 51 51 51 51 52 52 53 53 54 55
Wind_Direction
215 210 207 206 204 202 201 201 202 201 201 202 202 202 201 199 199 199 198 198 198 198 199 201 202 203 207 210 208 205 204 203 207 217 222 221 221 222 222 222 223 221 218 217 218 219 220 221 222 225 227 227 227 228 230 231 232 235 237 240 243 247 251 253 254 256 258 260 263 265 267 269 270 271 271 273 274 273 271 270 267 263 260 257 256 255 257
215 211 207 205 205 203 202 201 202 201 201 202 202 202 201 200 200 199 198 198 198 198 199 201 202 204 207 210 211 210 209 205 202 205 212 217 220 223 223 222 222 222 219 217 218 219 221 222 224 226 227 228 227 227 229 231 233 236 239 240 242 245 248 249 251 254 256 257 261 264 266 268 269 269 268 269 271 270 270 269 266 263 260 259 259 260 261
215 211 208 206 205 204 202 201 202 202 201 202 203 203 202 201 201 200 199 198 198 198 199 201 203 205 208 210 212 213 212 209 205 202 205 210 214 221 224 222 221 222 220 219 219 219 221 223 224 226 228 229 229 229 230 233 235 239 242 244 246 247 247 245 247 251 253 254 257 259 261 264 266 267 265 265 266 266 266 268 267 263 260 258 259 263 266
219 212 209 206 204 204 203 202 202 202 201 202 203 203 202 202 201 201 199 199 199 199 199 201 204 207 209 211 212 213 212 210 208 205 206 210 212 216 223 222 220 221 221 221 221 221 223 223 224 226 229 230 231 232 234 238 242 246 249 250 251 251 250 247 246 248 251 252 253 254 256 259 261 262 263 262 262 262 264 267 268 265 261 258 258 260 263
228 215 210 207 205 204 204 203 202 202 202 202 203 204 203 202 202 201 200 199 199 199 198 200 204 208 211 213 213 213 212 211 209 209 210 211 211 214 220 221 219 220 221 222 223 223 225 226 226 228 230 232 234 236 238 242 245 248 250 251 253 255 257 255 251 250 251 252 252 252 253 253 254 258 261 261 261 262 265 267 268 266 261 258 258 259 261
238 221 212 208 206 204 204 204 203 202 202 202 203 204 204 203 203 202 201 200 200 200 199 199 202 207 212 216 216 215 213 211 211 211 212 213 213 215 219 220 219 220 221 222 223 223 225 227 228 230 233 236 240 241 240 243 246 248 250 251 252 254 257 258 256 254 254 254 254 253 253 252 252 254 258 262 263 264 266 267 267 265 261 259 260 261 264
247 228 215 210 207 205 205 205 204 203 202 203 203 204 204 204 204 203 202 201 200 200 199 197 199 203 210 217 219 219 217 214 213 213 213 214 215 216 220 222 220 219 219 221 223 223 223 225 226 227 232 236 240 241 241 243 245 247 249 250 250 250 251 252 254 256 257 257 256 254 253 253 253 253 254 259 263 264 266 267 268 265 262 261 262 263 263
256 232 219 212 209 207 206 206 205 203 203 203 204 204 204 204 204 203 202 201 201 200 198 195 196 199 204 213 219 221 220 218 216 216 215 215 216 217 220 223 222 221 220 220 221 222 222 222 220 222 225 229 232 237 240 241 242 243 244 244 245 248 249 246 246 252 256 258 258 257 255 255 255 256 256 255 255 256 258 262 265 264 260 258 259 259 259
274 240 223 214 210 208 207 207 206 205 204 204 204 205 205 205 204 203 203 202 201 200 197 194 196 197 200 210 217 220 222 221 218 217 217 216 215 217 219 221 223 223 223 221 219 219 221 221 218 217 219 221 223 226 229 231 233 237 239 239 239 244 248 247 244 246 253 257 257 256 256 255 256 257 256 253 249 249 251 255 259 261 260 257 256 256 257
299 255 231 218 213 210 208 207 207 206 205 205 205 205 206 206 205 204 203 203 202 201 197 195 196 197 198 206 213 215 218 222 220 218 217 216 215 216 217 219 221 224 226 225 221 218 220 221 218 216 216 219 221 222 225 226 227 228 230 231 234 238 243 246 245 245 248 250 250 250 252 253 253 252 251 250 248 246 248 251 251 253 255 256 255 255 255
314 277 244 227 217 213 209 208 207 207 206 206 205 205 206 206 206 205 205 204 203 201 199 197 198 200 199 204 210 209 211 218 221 219 217 216 216 215 216 218 220 221 225 227 225 220 219 221 219 216 216 218 220 222 225 228 228 227 226 226 229 233 237 240 243 245 245 244 246 249 252 255 255 253 252 253 251 247 246 248 248 249 250 252 253 253 253
306 295 262 239 225 216 211 209 208 208 208 207 206 206 206 207 206 206 206 206 204 203 201 200 201 202 202 205 210 208 206 212 219 220 218 217 217 218 217 218 219 219 221 226 226 223 221 221 220 218 216 218 222 224 225 227 228 229 230 230 232 234 236 237 239 242 244 244 246 248 251 254 256 255 254 255 254 250 247 246 246 248 250 252 252 251 251
295 298 278 251 234 221 213 210 209 209 208 208 207 207 207 207 207 207 207 207 206 204 203 203 203 204 204 207 210 209 206 207 214 219 219 218 219 220 219 219 219 218 219 223 225 223 223 222 220 219 217 217 221 224 225 226 227 229 231 232 233 235 236 237 237 238 240 242 245 247 248 251 254 254 255 256 255 253 249 246 245 247 250 251 252 251 250
295 296 286 261 242 228 216 212 211 209 209 209 208 207 207 208 208 208 208 208 208 207 206 206 206 206 206 208 210 210 207 206 210 216 220 220 220 221 220 220 219 218 220 223 224 224 224 223 221 220 220 219 220 222 224 226 227 229 231 232 233 234 235 236 238 238 239 241 243 244 246 248 250 253 256 256 255 253 250 247 246 247 249 249 250 252 252
298 299 292 267 246 234 222 214 212 210 209 209 209 208 208 208 209 209 209 209 210 210 209 209 209 209 209 210 211 210 209 206 207 213 219 221 221 221 220 220 220 219 221 224 225 224 225 225 223 222 221 221 221 223 225 226 228 230 231 232 234 234 234 235 237 239 240 241 242 244 246 247 248 250 253 254 254 252 250 247 246 247 249 249 249 251 253
299 302 297 272 247 237 228 218 213 211 210 210 210 209 209 209 209 209 210 210 211 212 212 212 212 213 213 213 213 212 210 208 206 209 216 222 223 222 221 221 221 221 221 222 224 225 225 226 225 224 223 223 223 225 226 227 229 231 233 234 234 235 235 235 236 238 240 242 243 244 246 246 246 246 247 249 251 251 250 248 247 247 248 249 249 251 252
300 303 301 279 248 236 231 222 215 212 211 211 210 210 209 210 210 210 210 211 212 213 214 214 215 216 216 217 217 217 215 213 211 209 212 219 224 225 224 222 222 222 223 223 224 225 226 226 226 226 225 225 225 227 228 229 230 231 233 234 235 236 236 237 237 238 239 240 241 241 242 243 243 243 244 245 247 249 250 250 249 248 248 249 249 250 251
302 305 306 287 253 235 231 225 217 213 211 211 211 210 210 210 211 211 211 212 213 214 215 216 217 218 218 219 219 220 220 220 219 217 215 216 221 225 227 226 224 223 224 225 226 226 227 227 228 228 228 228 228 228 230 231 231 231 232 234 235 236 237 237 238 238 238 237 238 238 240 241 243 244 246 247 248 249 250 249 249 249 250 250 251 251 251
304 309 308 291 257 236 229 225 220 214 211 211 211 211 211 211 212 212 212 213 214 216 217 218 218 219 220 220 220 221 222 222 223 222 220 218 218 222 226 228 228 226 225 226 228 228 228 229 229 229 229 230 230 230 231 231 232 232 233 234 236 237 237 238 237 237 237 238 238 239 240 242 243 245 248 249 250 250 251 251 251 252 253 253 252 252 253
305 312 310 292 261 238 227 223 220 215 211 210 210 211 212 213 213 214 214 213 214 216 218 218 219 220 220 221 221 221 222 223 223 223 222 222 221 221 223 227 230 229 228 228 228 229 229 230 230 230 231 231 231 232 232 232 233 233 234 235 236 237 238 238 239 239 239 239 240 241 242 243 244 246 248 250 251 252 253 253 254 255 256 254 253 253 254
306 313 311 293 262 238 226 220 218 214 209 208 207 208 211 214 214 215 216 216 216 218 219 219 219 220 221 221 222 221 221 222 224 223 223 223 223 223 222 224 228 230 231 230 230 230 231 231 230 231 231 232 233 233 233 233 234 234 234 235 237 237 238 238 239 239 240 240 241 242 243 244 245 246 248 249 251 253 254 254 255 255 256 255 254 255 256
305 313 312 296 264 238 224 217 214 210 206 204 201 200 206 212 210 210 216 219 220 221 221 221 221 221 221 222 222 222 222 222 223 224 223 223 224 225 225 224 226 229 231 232 232 232 232 232 232 232 231 232 232 233 234 234 234 235 235 236 237 237 238 238 239 239 240 241 241 242 243 244 245 246 247 249 250 252 253 254 255 255 255 255 255 256 256
304 314 314 299 264 235 219 211 208 205 200 197 196 194 200 207 205 200 205 217 222 224 224 223 223 223 223 223 223 223 223 222 223 224 224 224 224 225 226 227 227 227 229 232 233 234 234 234 234 233 233 232 232 232 233 234 234 235 235 235 236 237 238 238 239 239 239 240 241 242 243 244 245 246 247 248 249 251 252 253 254 255 255 256 256 256 256
303 314 317 302 266 232 212 203 201 197 192 189 192 195 200 204 202 199 200 209 221 225 225 224 224 224 224 224 224 224 224 224 224 225 225 226 226 226 227 228 228 228 229 230 232 233 234 235 235 235 235 234 233 232 233 233 234 234 235 235 235 236 237 238 239 239 240 240 241 242 243 244 245 246 247 248 249 250 251 252 253 254 254 255 255 256 256
301 313 318 305 270 231 208 197 193 190 187 186 188 195 201 203 201 199 201 206 216 224 225 224 224 224 224 225 225 225 225 225 225 226 226 226 227 227 227 227 228 229 229 229 230 231 233 234 235 236 236 237 236 236 235 235 235 235 236 236 236 237 238 239 239 240 241 241 242 243 243 244 245 246 247 248 249 249 250 251 252 253 253 254 255 255 255
298 311 318 307 273 233 211 198 190 186 185 186 188 193 201 204 201 199 201 205 211 219 224 224 224 224 224 224 225 226 226 226 227 227 227 227 227 228 228 228 229 229 230 230 230 231 232 233 234 235 236 237 238 239 239 239 238 238 238 239 239 240 240 241 242 243 243 244 244 244 245 245 245 246 247 248 248 249 249 250 250 251 252 253 254 254 255
294 307 315 308 276 239 215 201 192 187 186 188 190 193 198 201 201 201 203 207 211 216 221 225 225 225 224 224 225 227 227 228 228 228 228 228 229 230 230 230 230 231 231 232 232 233 233 234 235 236 237 238 239 240 241 242 242 242 242 242 243 243 243 244 245 245 246 246 247 247 247 247 247 247 247 248 248 249 249 249 249 250 251 251 252 253 254
288 301 311 307 279 242 220 207 198 193 190 191 193 195 196 197 199 202 206 210 213 217 221 225 226 226 225 225 226 227 228 229 229 229 230 230 231 232 232 233 233 233 233 234 234 235 236 236 237 238 239 240 241 241 242 242 243 244 244 245 245 246 246 246 247 247 248 248 248 249 249 250 250 250 249 249 249 249 249 249 250 250 251 251 252 253 253
282 295 305 304 281 243 223 214 207 201 197 196 197 198 199 200 201 204 208 211 214 217 220 224 226 227 227 227 227 228 229 230 231 231 232 232 233 233 234 235 235 236 236 237 237 237 238 239 239 240 241 241 242 243 244 244 245 245 246 246 247 247 248 248 249 249 250 250 250 250 250 251 251 252 252 252 252 252 251 251 251 251 252 252 253 253 254
276 287 298 299 282 249 224 216 214 210 207 204 203 203 203 204 206 209 212 215 217 219 222 224 226 227 228 229 229 230 231 232 232 233 233 234 234 235 236 236 237 238 239 239 239 240 240 240 241 241 241 242 242 243 244 245 246 246 247 247 248 248 249 249 249 250 250 251 251 251 251 251 252 252 252 253 253 253 254 254 253 253 253 254 254 254 255
271 279 290 295 283 259 232 218 215 215 214 213 212 211 210 210 210 212 215 218 221 223 226 227 228 228 229 230 231 232 232 232 233 234 234 235 236 236 237 238 239 239 240 240 241 241 242 242 242 242 243 243 243 244 244 245 246 246 247 248 249 249 250 250 251 251 251 251 251 252 252 252 252 253 253 253 253 254 254 255 255 255 256 256 256 256 256
266 275 284 289 282 265 247 227 217 216 217 218 219 219 219 218 218 218 219 221 224 226 229 230 232 232 233 233 234 235 235 235 235 235 235 236 237 237 238 239 240 241 241 242 243 243 243 244 244 244 245 245 245 246 246 246 247 247 248 248 249 250 250 251 251 252 252 252 252 252 252 252 253 253 253 254 254 254 255 255 256 256 257 257 258 258 258
261 269 277 282 279 267 255 241 226 218 217 219 221 222 224 225 225 225 225 227 228 230 232 234 235 236 237 237 238 239 239 240 239 238 238 238 239 239 240 240 241 242 243 243 244 245 245 245 246 246 246 247 247 247 248 248 249 249 249 250 250 250 250 251 251 252 253 253 253 253 254 254 254 254 254 254 255 255 255 256 256 257 257 258 258 259 259
254 263 271 276 275 267 258 249 238 226 219 218 219 222 224 226 228 229 229 230 231 233 235 237 238 239 240 240 240 241 241 242 242 242 242 242 242 242 242 242 242 243 244 244 245 246 246 247 247 248 248 248 249 249 249 250 250 251 251 251 251 252 252 252 253 253 253 254 254 255 255 255 256 256 256 256 257 257 257 257 257 257 258 258 258 259 259
248 258 265 268 267 261 255 250 244 235 227 222 220 221 223 226 228 230 232 233 234 235 237 238 239 240 241 241 241 242 242 242 243 243 244 244 245 245 245 245 245 245 246 246 247 247 247 248 248 249 249 250 250 250 251 251 252 252 252 253 253 253 254 254 254 255 255 255 256 256 256 257 258 258 259 259 259 259 259 259 260 260 260 260 260 261 261
245 253 257 259 259 256 252 249 246 240 234 228 224 222 222 224 227 230 232 234 235 236 237 238 239 240 240 241 242 243 243 244 244 245 245 246 247 247 248 248 248 248 248 249 249 249 249 250 250 250 250 251 251 251 252 252 252 253 253 254 254 255 255 256 256 256 256 257 257 257 258 258 259 259 260 260 260 261 261 261 262 262 262 262 263 263 263
241 248 252 252 250 248 248 248 246 243 238 232 227 224 223 223 225 228 231 233 235 237 238 239 240 241 242 243 244 244 245 246 246 247 247 248 248 249 249 250 250 251 251 251 251 252 252 252 253 253 253 253 253 253 254 254 254 254 255 255 256 256 257 257 257 258 258 258 259 259 259 259 260 260 260 261 261 261 262 262 263 263 263 264 264 265 265
240 246 249 248 245 242 242 244 245 243 241 237 233 230 227 225 225 226 228 230 233 235 237 240 241 243 244 246 247 248 248 249 249 250 250 250 251 251 252 252 253 253 253 254 254 254 254 254 255 255 255 255 255 256 256 256 256 256 257 257 257 258 258 258 259 259 260 260 260 261 261 261 261 262 262 262 262 262 263 263 264 264 264 265 265 266 266
242 245 246 245 241 238 238 238 240 241 240 239 238 237 236 235 233 232 232 232 233 234 236 238 240 242 244 245 247 248 249 250 251 252 253 254 254 255 255 256 256 256 256 256 256 256 256 256 257 257 257 257 258 258 258 258 258 258 259 259 259 259 260 260 260 261 261 261 262 262 263 263 263 264 264 264 264 265 265 265 265 265 266 266 266 267 267
244 246 246 245 241 237 233 233 235 237 239 240 241 242 243 242 241 240 240 241 241 241 241 242 242 243 245 245 247 248 249 251 252 253 254 255 256 257 257 258 258 259 259 259 259 259 259 259 259 259 260 260 260 260 260 260 260 261 261 261 261 261 261 262 262 262 262 263 263 263 264 264 265 265 266 266 266 267 267 267 267 267 268 268 268 268 268
247 250 251 249 244 238 233 230 232 234 237 240 242 243 244 245 246 247 249 249 250 250 250 250 250 251 251 251 252 253 254 255 256 257 257 258 258 259 260 260 261 261 262 262 262 262 262 262 262 263 262 262 262 263 263 263 263 263 263 263 263 263 263 263 264 264 264 264 265 265 265 266 266 267 267 267 268 268 268 269 269 269 269 269 269 269 269
250 254 255 252 246 238 233 231 232 234 236 238 240 242 244 246 249 252 254 255 256 257 258 257 257 257 258 258 259 260 260 261 262 262 263 263 264 264 264 265 265 265 265 265 266 266 266 266 266 266 265 265 265 265 265 265 265 265 265 266 266 266 266 266 266 266 266 266 267 267 267 268 268 268 269 269 269 269 269 269 269 270 270 270 270 270 270
251 254 256 253 247 239 234 233 233 235 238 239 240 243 245 248 251 253 256 258 260 262 262 262 262 263 263 264 265 265 266 267 267 268 268 269 269 269 269 269 269 269 269 269 268 268 268 268 268 268 268 268 268 268 268 268 268 268 268 268 268 268 268 268 268 269 269 269 269 269 270 270 270 270 270 270 270 270 270 270 270 269 269 269 269 269 269
252 254 255 253 248 241 236 235 235 238 240 241 242 245 248 251 253 255 258 261 263 264 264 264 265 266 266 267 268 269 270 271 272 272 273 273 273 272 272 272 272 272 272 272 271 271 271 271 270 270 270 270 270 270 270 270 270 270 270 270 270 270 271 271 271 272 272 272 272 272 272 272 272 271 271 271 270 270 270 270 269 269 269 269 269 269 268
255 256 255 251 246 241 237 236 237 239 242 243 245 248 250 252 254 258 261 263 264 265 265 265 266 267 268 269 270 272 273 274 275 275 275 275 275 275 275 275 275 275 275 275 275 274 274 274 273 273 273 272 272 272 272 272 272 272 272 272 272 272 273 273 273 273 274 274 274 274 274 274 273 273 272 272 271 271 270 270 269 269 269 268 268 268 268
260 258 253 248 243 239 237 237 239 242 244 246 248 250 252 254 257 261 263 264 264 265 265 267 268 270 271 273 274 275 276 277 277 277 277 277 278 278 279 279 279 279 279 279 278 278 278 277 276 276 275 275 274 274 274 273 273 273 273 273 274 274 274 275 275 275 275 275 275 275 275 274 274 273 273 273 272 272 271 271 270 270 269 268 268 267 267
259 255 250 245 241 239 239 240 242 245 247 249 250 252 255 258 261 263 264 264 265 266 268 270 272 274 275 277 278 279 279 279 279 279 279 280 281 282 283 283 284 284 284 284 283 283 282 281 280 279 278 277 277 276 275 275 274 274 274 274 275 275 275 276 276 276 276 276 276 275 275 275 274 274 273 273 272 272 271 271 270 270 269 269 268 268 267
255 250 247 244 242 241 242 244 245 247 249 251 253 255 258 260 262 263 264 265 268 270 272 274 276 278 280 281 281 281 280 280 280 280 282 283 285 286 287 288 289 289 289 289 289 288 287 285 284 283 282 281 280 279 277 277 276 276 276 276 276 276 276 276 277 277 277 277 276 276 276 275 275 274 274 273 273 272 271 271 270 270 269 269 268 268 267
251 247 245 243 243 243 244 245 247 249 251 253 255 257 259 261 262 264 266 269 272 274 277 279 281 283 283 283 282 282 281 281 282 284 285 287 289 291 292 293 293 294 294 294 294 293 292 290 289 288 287 286 284 282 281 280 279 279 279 278 278 278 278 278 278 279 279 278 278 277 277 276 276 275 275 274 273 273 272 271 271 270 269 269 268 267 267
246 244 243 242 242 244 245 248 250 251 253 255 257 259 261 262 265 268 271 274 276 279 281 283 285 285 285 284 284 284 284 285 286 288 290 292 293 294 295 296 297 298 298 299 298 297 296 295 293 292 291 290 288 286 285 283 283 282 282 282 282 281 281 281 280 280 280 280 279 279 278 277 277 276 276 275 275 274 273 272 271 270 270 269 268 268 268
242 242 242 242 244 246 248 250 251 253 255 258 260 261 263 265 268 271 274 276 279 282 284 286 286 286 286 286 286 287 288 289 291 292 293 295 296 297 298 299 300 301 302 302 301 300 298 297 296 295 293 292 290 289 288 287 287 286 286 286 285 285 284 283 283 282 281 280 280 279 279 278 277 277 277 276 276 275 274 273 272 271 270 269 269 269 268
241 242 243 244 246 248 250 252 254 256 258 260 262 263 265 267 270 273 276 279 282 285 287 288 288 288 289 289 290 291 292 293 293 294 295 297 298 300 302 303 304 305 305 304 303 301 300 298 297 296 295 294 293 291 291 290 290 290 290 289 288 287 287 286 285 284 283 282 281 280 280 279 278 278 277 276 276 275 274 274 273 272 271 271 270 269 269
Height
10710 10715 10720 10727 10734 10742 10750 10759 10768 10777 10785 10792 10799 10806 10814 10821 10828 10834 10843 10852 10859 10866 10872 10876 10881 10886 10889 10894 10903 10910 10915 10920 10923 10924 10927 10930 10933 10935 10938 10941 10946 10951 10955 10958 10961 10964 10967 10969 10972 10974 10975 10977 10979 10982 10984 10986 10988 10989 10991 10992 10994 10995 10997 10998 10999 11000 11001 11003 11004 11004 11005 11006 11007 11008 11009 11009 11010 11010 11010 11010 11010 11010 11010 11011 11012 11012 11013
10707 10711 10716 10723 10730 10738 10746 10754 10763 10771 10778 10786 10794 10801 10808 10815 10821 10829 10839 10846 10853 10861 10866 10871 10876 10881 10884 10889 10895 10901 10907 10911 10915 10919 10922 10924 10926 10929 10932 10936 10941 10945 10949 10953 10956 10959 10962 10965 10968 10970 10971 10973 10975 10979 10981 10983 10984 10986 10987 10989 10990 10992 10993 10995 10996 10997 10998 10999 11001 11002 11003 11003 11004 11005 11006 11006 11007 11007 11007 11008 11008 11008 11008 11008 11009 11010 11011
10705 10708 10713 10718 10726 10733 10741 10750 10758 10766 10774 10781 10788 10795 10803 10810 10817 10824 10832 10839 10846 10854 10861 10865 10870 10874 10878 10883 10888 10894 10901 10906 10910 10914 10915 10916 10919 10923 10926 10930 10935 10940 10944 10948 10951 10954 10957 10960 10963 10965 10967 10969 10972 10976 10978 10980 10981 10982 10984 10985 10987 10988 10989 10990 10992 10993 10994 10996 10997 10999 11000 11001 11001 11002 11002 11003 11003 11003 11004 11004 11005 11005 11005 11006 11006 11007 11008
10703 10705 10709 10714 10721 10729 10737 10746 10754 10761 10769 10776 10783 10790 10797 10805 10812 10818 10826 10833 10840 10848 10855 10860 10864 10868 10872 10877 10881 10887 10894 10900 10904 10907 10908 10909 10914 10918 10921 10925 10930 10935 10939 10942 10945 10949 10952 10955 10958 10961 10963 10966 10969 10972 10975 10976 10978 10979 10981 10982 10983 10984 10985 10986 10988 10989 10991 10992 10994 10995 10997 10998 10998 10998 10999 10999 11000 11000 11000 11001 11001 11001 11002 11002 11003 11004 11004
10701 10703 10706 10710 10717 10724 10733 10741 10749 10756 10763 10771 10778 10785 10792 10799 10805 10812 10820 10827 10834 10842 10849 10854 10859 10864 10868 10871 10876 10881 10887 10892 10897 10901 10903 10905 10910 10915 10917 10921 10925 10929 10934 10938 10941 10944 10948 10952 10955 10957 10960 10963 10966 10969 10972 10973 10975 10976 10976 10977 10978 10978 10980 10983 10984 10985 10987 10988 10990 10991 10992 10994 10994 10995 10995 10996 10996 10996 10997 10997 10997 10997 10998 10998 10999 10999 11000
10698 10700 10703 10707 10713 10720 10727 10734 10741 10749 10757 10764 10771 10778 10786 10793 10799 10806 10815 10822 10829 10836 10843 10851 10860 10866 10868 10869 10871 10876 10881 10886 10890 10894 10898 10902 10907 10911 10913 10916 10920 10925 10930 10934 10938 10941 10945 10948 10951 10954 10957 10960 10963 10966 10969 10970 10970 10971 10970 10971 10972 10972 10975 10978 10980 10981 10982 10984 10985 10987 10988 10989 10990 10991 10992 10993 10993 10993 10992 10992 10993 10993 10994 10994 10995 10996 10997
10695 10697 10701 10705 10710 10715 10720 10726 10733 10743 10750 10757 10764 10771 10779 10786 10793 10801 10809 10817 10823 10830 10839 10849 10857 10861 10864 10865 10867 10870 10874 10878 10883 10887 10892 10897 10902 10906 10908 10911 10916 10922 10927 10931 10934 10938 10942 10945 10948 10952 10955 10957 10959 10961 10963 10964 10964 10965 10964 10965 10966 10966 10968 10972 10974 10976 10977 10979 10980 10982 10984 10985 10986 10988 10990 10990 10989 10988 10987 10987 10988 10989 10990 10991 10991 10992 10992
10692 10694 10697 10701 10705 10710 10715 10721 10729 10738 10745 10751 10757 10764 10771 10778 10786 10795 10803 10811 10817 10824 10834 10842 10847 10851 10857 10860 10860 10862 10866 10871 10876 10880 10885 10890 10896 10900 10903 10908 10913 10919 10923 10927 10930 10934 10937 10941 10945 10948 10951 10952 10954 10956 10957 10958 10958 10959 10959 10960 10961 10961 10961 10965 10968 10970 10971 10972 10975 10977 10979 10981 10982 10984 10987 10987 10985 10982 10982 10983 10983 10983 10984 10986 10987 10986 10986
10690 10690 10692 10695 10699 10703 10709 10716 10724 10731 10738 10743 10750 10757 10765 10772 10780 10789 10797 10804 10809 10816 10826 10834 10838 10843 10851 10854 10852 10853 10857 10863 10868 10873 10878 10884 10890 10894 10899 10905 10911 10915 10919 10922 10925 10928 10932 10935 10939 10943 10945 10947 10949 10950 10952 10953 10954 10955 10955 10956 10957 10957 10956 10958 10961 10964 10964 10966 10969 10971 10972 10975 10979 10981 10981 10979 10978 10977 10977 10978 10978 10976 10976 10979 10980 10980 10981
10688 10687 10688 10690 10693 10696 10702 10710 10718 10725 10731 10737 10744 10752 10760 10768 10776 10784 10790 10796 10801 10809 10817 10825 10829 10832 10836 10840 10841 10844 10848 10853 10859 10865 10872 10879 10886 10890 10896 10902 10907 10910 10913 10915 10918 10921 10925 10928 10932 10937 10940 10942 10943 10945 10945 10946 10947 10949 10950 10951 10951 10950 10950 10951 10954 10957 10959 10960 10962 10963 10964 10967 10971 10973 10971 10970 10971 10972 10972 10974 10973 10970 10971 10973 10974 10975 10976
10686 10685 10684 10685 10687 10690 10697 10705 10712 10718 10724 10732 10740 10748 10756 10764 10771 10778 10783 10788 10795 10802 10809 10815 10818 10819 10821 10824 10826 10832 10838 10843 10849 10858 10866 10873 10878 10882 10888 10893 10896 10899 10903 10906 10909 10913 10916 10920 10925 10930 10934 10936 10938 10939 10939 10939 10940 10940 10941 10943 10942 10941 10942 10945 10947 10949 10952 10953 10955 10956 10957 10959 10961 10962 10962 10963 10966 10967 10967 10967 10967 10966 10967 10968 10969 10969 10970
10684 10683 10682 10681 10682 10686 10693 10699 10705 10711 10718 10726 10735 10743 10750 10757 10764 10770 10775 10781 10788 10795 10801 10805 10807 10808 10811 10813 10814 10820 10829 10835 10842 10850 10858 10865 10869 10874 10879 10883 10886 10890 10894 10894 10896 10899 10904 10909 10915 10922 10928 10932 10933 10933 10933 10933 10933 10933 10933 10934 10934 10934 10935 10937 10939 10941 10943 10945 10947 10949 10951 10951 10952 10954 10956 10957 10959 10960 10960 10960 10961 10962 10963 10963 10964 10964 10964
10681 10680 10679 10678 10678 10682 10688 10693 10698 10703 10711 10720 10729 10737 10743 10749 10756 10762 10768 10774 10781 10787 10793 10796 10798 10800 10804 10806 10808 10814 10823 10830 10836 10842 10849 10856 10861 10865 10872 10876 10880 10884 10885 10883 10884 10889 10894 10900 10908 10915 10921 10925 10924 10923 10924 10924 10925 10925 10925 10927 10928 10928 10928 10930 10931 10933 10935 10937 10939 10942 10944 10945 10945 10946 10948 10950 10951 10952 10953 10954 10957 10958 10957 10958 10959 10958 10957
10676 10676 10676 10675 10674 10676 10681 10686 10690 10697 10705 10714 10721 10728 10735 10742 10749 10756 10763 10769 10775 10780 10785 10788 10790 10793 10796 10799 10803 10811 10819 10826 10832 10836 10841 10847 10853 10858 10864 10869 10872 10876 10877 10875 10878 10883 10888 10894 10900 10906 10912 10915 10914 10914 10915 10916 10916 10917 10919 10920 10922 10922 10923 10923 10924 10926 10928 10929 10931 10934 10936 10937 10938 10938 10940 10941 10943 10944 10945 10948 10951 10951 10949 10951 10953 10950 10949
10672 10672 10672 10670 10670 10672 10675 10680 10685 10691 10698 10705 10712 10720 10728 10735 10742 10750 10757 10763 10768 10773 10777 10780 10783 10786 10790 10793 10799 10807 10814 10821 10827 10831 10834 10838 10844 10850 10856 10861 10865 10868 10869 10869 10872 10877 10881 10885 10891 10896 10901 10904 10905 10906 10906 10907 10908 10910 10911 10912 10912 10913 10915 10916 10916 10918 10920 10922 10923 10925 10927 10929 10930 10931 10932 10933 10934 10935 10937 10939 10942 10942 10941 10944 10945 10942 10942
10668 10667 10667 10666 10665 10666 10668 10672 10678 10684 10690 10696 10704 10714 10722 10729 10736 10744 10751 10756 10761 10766 10770 10773 10776 10780 10784 10788 10794 10801 10809 10815 10820 10825 10829 10833 10837 10843 10849 10853 10857 10861 10862 10864 10866 10869 10873 10877 10882 10886 10891 10894 10895 10896 10896 10897 10900 10902 10902 10902 10903 10904 10906 10908 10909 10911 10913 10914 10916 10918 10919 10921 10922 10923 10924 10925 10925 10926 10927 10928 10931 10933 10933 10935 10936 10935 10936
10665 10663 10662 10660 10660 10660 10661 10665 10670 10676 10683 10690 10698 10707 10715 10722 10730 10739 10745 10751 10755 10759 10763 10767 10771 10775 10779 10783 10789 10796 10803 10809 10814 10819 10825 10828 10831 10835 10840 10845 10849 10853 10855 10858 10860 10863 10866 10869 10873 10877 10881 10884 10886 10887 10887 10889 10891 10892 10892 10893 10895 10897 10899 10900 10902 10904 10905 10907 10909 10911 10911 10912 10913 10914 10915 10917 10917 10918 10918 10918 10920 10922 10924 10925 10926 10927 10927
10660 10659 10657 10655 10654 10654 10656 10659 10663 10669 10676 10683 10691 10700 10708 10715 10724 10732 10739 10744 10749 10754 10758 10761 10766 10770 10775 10779 10785 10791 10797 10803 10808 10813 10818 10823 10826 10828 10831 10836 10841 10845 10848 10850 10853 10856 10859 10862 10865 10869 10872 10875 10877 10879 10879 10881 10882 10883 10884 10884 10887 10889 10890 10892 10893 10895 10896 10898 10900 10902 10902 10903 10904 10905 10906 10907 10909 10910 10910 10910 10911 10912 10914 10915 10916 10917 10918
10656 10654 10652 10650 10649 10649 10650 10652 10656 10662 10669 10677 10686 10695 10703 10711 10720 10728 10733 10739 10745 10748 10752 10756 10760 10765 10770 10775 10781 10786 10791 10796 10801 10806 10811 10815 10819 10822 10824 10827 10832 10836 10840 10842 10845 10848 10852 10855 10858 10861 10864 10866 10868 10870 10871 10872 10874 10875 10876 10876 10878 10880 10881 10883 10884 10885 10887 10889 10890 10892 10893 10894 10895 10896 10896 10898 10899 10901 10901 10902 10903 10904 10905 10906 10907 10908 10909
10651 10649 10647 10645 10644 10643 10644 10646 10650 10656 10664 10672 10681 10692 10702 10710 10718 10723 10728 10735 10741 10742 10743 10747 10752 10758 10763 10768 10773 10779 10784 10789 10794 10798 10802 10806 10810 10814 10816 10819 10822 10826 10830 10833 10836 10839 10843 10847 10850 10853 10856 10858 10860 10861 10862 10863 10864 10866 10867 10867 10868 10870 10871 10873 10875 10876 10877 10879 10880 10882 10884 10885 10886 10887 10887 10888 10889 10890 10891 10892 10893 10894 10896 10897 10898 10899 10900
10648 10645 10643 10640 10639 10638 10639 10641 10645 10651 10659 10667 10677 10690 10700 10709 10717 10725 10730 10734 10735 10733 10733 10738 10744 10750 10755 10760 10765 10771 10776 10781 10785 10789 10793 10797 10801 10805 10808 10811 10813 10816 10820 10823 10827 10830 10834 10837 10841 10844 10847 10849 10851 10852 10853 10854 10855 10856 10857 10858 10859 10860 10861 10863 10864 10865 10866 10868 10869 10871 10873 10874 10876 10877 10878 10878 10879 10880 10881 10882 10883 10884 10886 10887 10888 10889 10890
10644 10642 10639 10636 10634 10634 10635 10638 10642 10647 10654 10663 10672 10681 10689 10698 10711 10724 10731 10732 10730 10728 10729 10734 10739 10743 10748 10752 10757 10762 10767 10772 10776 10780 10784 10788 10792 10795 10798 10801 10805 10808 10810 10813 10817 10820 10824 10827 10831 10834 10837 10839 10841 10843 10843 10844 10845 10846 10847 10848 10849 10850 10851 10852 10853 10854 10856 10857 10859 10860 10862 10863 10864 10866 10867 10868 10869 10870 10870 10871 10872 10874 10875 10876 10877 10879 10880
10641 10639 10636 10633 10631 10631 10632 10635 10639 10644 10651 10659 10665 10669 10673 10682 10695 10707 10714 10719 10722 10722 10724 10728 10732 10735 10739 10744 10748 10753 10758 10763 10767 10770 10774 10778 10782 10785 10788 10792 10795 10799 10802 10804 10806 10809 10812 10816 10819 10822 10825 10828 10830 10831 10833 10834 10835 10836 10836 10837 10838 10839 10840 10841 10842 10843 10845 10846 10848 10849 10850 10851 10852 10853 10855 10856 10857 10858 10858 10859 10861 10862 10863 10865 10866 10867 10869
10638 10636 10633 10630 10629 10629 10630 10632 10636 10640 10646 10653 10658 10661 10666 10673 10683 10692 10699 10705 10706 10705 10708 10713 10719 10723 10729 10734 10739 10744 10749 10753 10757 10761 10765 10769 10772 10776 10779 10782 10785 10789 10792 10794 10797 10799 10801 10804 10807 10810 10812 10815 10818 10820 10821 10822 10823 10824 10825 10826 10827 10828 10829 10830 10831 10832 10833 10835 10836 10837 10838 10839 10840 10841 10843 10844 10845 10846 10846 10847 10848 10850 10851 10853 10854 10855 10857
10635 10634 10631 10628 10627 10628 10628 10630 10633 10637 10641 10646 10652 10657 10661 10666 10674 10683 10689 10690 10689 10688 10691 10696 10702 10709 10716 10722 10728 10733 10739 10743 10747 10751 10755 10758 10761 10764 10768 10771 10774 10778 10780 10783 10786 10788 10790 10793 10795 10797 10800 10802 10805 10807 10809 10810 10811 10812 10813 10814 10815 10817 10818 10819 10820 10821 10822 10823 10824 10825 10826 10827 10827 10828 10830 10831 10833 10834 10834 10835 10836 10837 10839 10840 10841 10843 10844
10632 10631 10629 10627 10626 10626 10627 10628 10630 10633 10637 10642 10647 10651 10655 10660 10667 10674 10676 10676 10676 10677 10680 10683 10689 10695 10702 10709 10716 10722 10727 10732 10736 10739 10743 10746 10750 10753 10756 10760 10763 10766 10769 10772 10774 10777 10779 10782 10784 10786 10788 10790 10793 10795 10797 10799 10800 10801 10801 10802 10803 10804 10805 10806 10807 10808 10809 10810 10812 10812 10813 10814 10814 10816 10817 10818 10820 10821 10821 10822 10823 10824 10826 10827 10828 10830 10831
10630 10629 10628 10626 10625 10625 10626 10628 10629 10631 10634 10638 10641 10645 10650 10655 10661 10665 10667 10668 10669 10671 10673 10675 10679 10685 10691 10698 10704 10710 10715 10719 10723 10727 10731 10734 10738 10741 10745 10748 10752 10755 10758 10761 10764 10766 10769 10771 10774 10776 10777 10779 10781 10783 10785 10786 10788 10789 10789 10790 10790 10791 10792 10793 10794 10795 10796 10797 10798 10799 10800 10800 10802 10803 10804 10805 10806 10807 10808 10809 10810 10811 10812 10813 10815 10816 10818
10627 10626 10626 10625 10624 10624 10625 10627 10628 10629 10631 10634 10638 10642 10646 10651 10655 10658 10660 10662 10663 10665 10668 10670 10673 10678 10684 10690 10695 10700 10704 10708 10711 10715 10719 10723 10727 10731 10735 10738 10742 10746 10749 10751 10754 10756 10758 10760 10763 10765 10766 10767 10769 10771 10772 10773 10774 10775 10776 10777 10777 10778 10779 10780 10781 10782 10782 10783 10784 10785 10785 10786 10787 10789 10790 10790 10791 10793 10794 10795 10795 10796 10798 10799 10800 10802 10804
10624 10623 10623 10623 10622 10623 10624 10625 10626 10627 10629 10631 10635 10638 10642 10646 10650 10652 10654 10655 10657 10660 10662 10665 10669 10673 10679 10684 10688 10692 10695 10698 10701 10705 10709 10713 10717 10721 10725 10729 10733 10736 10739 10741 10743 10745 10747 10749 10751 10753 10754 10755 10756 10758 10758 10759 10761 10762 10762 10763 10764 10765 10766 10766 10767 10768 10769 10769 10770 10770 10771 10771 10773 10774 10775 10776 10777 10777 10778 10779 10780 10781 10782 10784 10785 10787 10788
10621 10620 10620 10620 10620 10621 10622 10623 10625 10626 10627 10629 10632 10635 10638 10641 10645 10647 10649 10651 10653 10655 10657 10660 10664 10668 10673 10677 10681 10685 10688 10690 10694 10698 10701 10705 10708 10712 10716 10719 10722 10725 10727 10729 10731 10733 10735 10736 10738 10740 10741 10742 10743 10744 10745 10746 10747 10747 10748 10749 10749 10750 10751 10751 10752 10752 10753 10754 10755 10755 10756 10756 10757 10759 10760 10761 10761 10761 10762 10763 10764 10765 10766 10768 10769 10770 10772
10617 10617 10617 10617 10617 10618 10619 10620 10622 10624 10626 10628 10629 10632 10634 10637 10640 10642 10644 10647 10649 10651 10653 10656 10660 10664 10667 10670 10673 10676 10679 10682 10685 10688 10692 10695 10698 10701 10705 10708 10710 10713 10715 10717 10718 10720 10722 10723 10725 10726 10727 10728 10729 10730 10731 10732 10732 10733 10734 10734 10735 10735 10736 10736 10736 10736 10737 10738 10738 10739 10739 10740 10741 10742 10743 10743 10744 10744 10745 10745 10746 10747 10749 10750 10751 10753 10755
10613 10614 10614 10613 10613 10614 10616 10617 10619 10620 10623 10625 10628 10630 10632 10634 10637 10639 10641 10643 10645 10647 10650 10653 10656 10659 10661 10663 10665 10668 10670 10673 10676 10679 10682 10685 10688 10691 10693 10696 10699 10701 10703 10705 10707 10708 10710 10711 10712 10713 10714 10715 10715 10716 10717 10717 10718 10718 10719 10719 10719 10720 10720 10720 10720 10720 10720 10720 10721 10721 10722 10723 10724 10724 10724 10724 10726 10727 10728 10729 10729 10730 10731 10733 10734 10736 10738
10610 10610 10610 10610 10610 10611 10612 10613 10615 10616 10619 10621 10624 10626 10628 10631 10633 10636 10638 10640 10642 10645 10647 10650 10652 10653 10655 10657 10659 10661 10663 10665 10667 10670 10672 10675 10678 10680 10683 10686 10688 10690 10692 10694 10695 10696 10697 10698 10699 10699 10700 10701 10701 10702 10702 10702 10703 10703 10703 10703 10703 10703 10703 10703 10703 10703 10703 10703 10703 10703 10704 10705 10706 10706 10706 10706 10708 10710 10711 10712 10712 10713 10714 10716 10717 10718 10720
10607 10607 10607 10607 10608 10608 10609 10610 10611 10612 10614 10616 10618 10620 10623 10625 10627 10629 10632 10634 10637 10639 10641 10644 10645 10647 10648 10650 10651 10653 10655 10657 10659 10661 10663 10665 10667 10670 10672 10675 10677 10679 10680 10682 10683 10683 10684 10685 10685 10685 10686 10686 10686 10686 10686 10686 10686 10686 10686 10686 10685 10685 10685 10685 10685 10685 10685 10685 10685 10685 10686 10686 10687 10687 10688 10688 10689 10691 10692 10693 10694 10695 10696 10697 10699 10701 10702
10604 10604 10605 10605 10605 10606 10606 10607 10608 10609 10610 10611 10613 10615 10618 10620 10621 10623 10625 10627 10630 10632 10634 10636 10638 10639 10641 10642 10644 10645 10647 10649 10650 10652 10654 10656 10658 10660 10662 10664 10665 10667 10668 10669 10669 10669 10670 10670 10670 10670 10670 10670 10670 10670 10669 10669 10668 10668 10668 10667 10667 10667 10667 10667 10667 10666 10666 10666 10666 10667 10667 10667 10667 10668 10668 10669 10669 10671 10672 10674 10675 10676 10678 10679 10681 10683 10683
10601 10602 10602 10602 10602 10603 10603 10604 10605 10606 10607 10608 10609 10611 10613 10614 10616 10618 10620 10622 10624 10625 10627 10629 10631 10633 10634 10636 10637 10638 10639 10641 10642 10644 10646 10648 10649 10650 10651 10652 10653 10654 10655 10655 10655 10655 10656 10656 10656 10655 10654 10654 10653 10652 10652 10652 10651 10650 10650 10649 10649 10648 10648 10648 10647 10647 10647 10647 10647 10647 10647 10648 10648 10648 10648 10649 10649 10651 10652 10654 10656 10656 10657 10659 10661 10663 10663
10598 10598 10599 10599 10599 10600 10600 10601 10602 10603 10605 10606 10607 10608 10609 10611 10612 10614 10615 10617 10618 10620 10621 10623 10625 10627 10628 10630 10631 10632 10633 10634 10636 10637 10638 10639 10640 10640 10641 10641 10641 10642 10642 10643 10643 10643 10643 10642 10641 10640 10639 10638 10637 10636 10635 10635 10634 10634 10633 10632 10631 10630 10629 10629 10628 10628 10627 10627 10627 10627 10627 10627 10627 10628 10628 10629 10630 10630 10632 10634 10635 10637 10637 10638 10639 10640 10641
10595 10595 10596 10596 10596 10597 10598 10598 10599 10600 10602 10603 10604 10605 10606 10608 10609 10610 10612 10613 10614 10615 10617 10618 10620 10621 10623 10624 10625 10626 10627 10628 10628 10629 10630 10630 10631 10631 10631 10632 10632 10631 10631 10631 10630 10630 10629 10627 10626 10625 10624 10623 10621 10620 10619 10618 10617 10617 10616 10614 10613 10611 10610 10609 10609 10608 10607 10607 10606 10606 10606 10606 10606 10607 10608 10609 10610 10611 10612 10613 10615 10616 10618 10619 10618 10618 10618
10592 10592 10593 10593 10594 10595 10595 10596 10596 10597 10598 10600 10601 10602 10603 10605 10606 10607 10608 10609 10611 10612 10613 10614 10615 10616 10618 10618 10619 10620 10620 10620 10621 10622 10622 10623 10623 10623 10623 10622 10622 10620 10619 10618 10617 10616 10615 10613 10612 10610 10609 10608 10606 10604 10603 10601 10600 10599 10597 10596 10595 10593 10591 10590 10589 10588 10587 10586 10586 10585 10585 10585 10585 10586 10586 10587 10587 10589 10590 10592 10593 10594 10595 10597 10597 10597 10596
10588 10589 10590 10590 10591 10592 10593 10593 10594 10595 10596 10597 10598 10599 10600 10602 10603 10604 10605 10606 10607 10608 10609 10610 10611 10612 10613 10613 10613 10614 10614 10614 10615 10615 10615 10615 10615 10614 10614 10613 10611 10610 10608 10607 10605 10604 10602 10600 10599 10597 10595 10593 10591 10589 10587 10585 10583 10580 10578 10577 10575 10574 10573 10571 10570 10568 10567 10565 10564 10564 10564 10564 10565 10565 10565 10565 10565 10566 10567 10568 10569 10570 10571 10571 10573 10574 10574
10584 10585 10586 10587 10588 10589 10590 10591 10592 10592 10593 10594 10595 10596 10597 10598 10599 10600 10601 10602 10603 10604 10605 10606 10607 10607 10608 10608 10608 10608 10608 10608 10609 10608 10608 10607 10607 10606 10605 10603 10602 10600 10598 10597 10594 10592 10590 10588 10586 10583 10581 10579 10576 10574 10571 10568 10565 10563 10560 10558 10556 10555 10553 10552 10550 10548 10546 10544 10543 10543 10543 10544 10544 10544 10544 10544 10543 10543 10543 10544 10545 10545 10545 10545 10546 10547 10547
10580 10581 10582 10583 10585 10586 10587 10587 10588 10589 10590 10591 10593 10593 10594 10595 10595 10596 10597 10598 10598 10599 10600 10601 10601 10602 10602 10602 10602 10602 10602 10602 10601 10600 10600 10599 10598 10597 10596 10594 10592 10590 10588 10586 10584 10581 10579 10576 10573 10570 10567 10564 10562 10559 10556 10553 10549 10546 10543 10540 10538 10536 10534 10532 10529 10527 10526 10525 10524 10524 10524 10524 10524 10523 10523 10522 10521 10520 10519 10520 10520 10520 10519 10519 10519 10520 10520
10577 10578 10579 10580 10581 10582 10583 10584 10585 10586 10588 10589 10589 10590 10591 10591 10592 10593 10593 10593 10594 10595 10595 10596 10596 10596 10596 10596 10596 10596 10595 10594 10593 10592 10591 10590 10589 10587 10585 10584 10582 10580 10578 10575 10573 10570 10567 10564 10560 10557 10554 10551 10548 10544 10541 10537 10534 10530 10526 10523 10520 10518 10515 10512 10510 10508 10507 10506 10505 10505 10504 10504 10503 10502 10501 10500 10499 10497 10496 10496 10496 10497 10496 10496 10496 10496 10495
10574 10574 10575 10576 10576 10578 10579 10580 10582 10583 10584 10585 10586 10586 10587 10588 10588 10589 10589 10590 10591 10591 10591 10591 10591 10591 10591 10590 10590 10589 10588 10587 10585 10584 10582 10581 10579 10577 10575 10573 10571 10569 10566 10563 10560 10557 10554 10550 10547 10543 10540 10536 10533 10529 10526 10522 10518 10514 10510 10506 10503 10500 10497 10494 10492 10490 10488 10487 10485 10485 10484 10483 10482 10481 10480 10479 10478 10476 10474 10473 10474 10474 10475 10475 10475 10475 10474
10570 10571 10571 10572 10572 10574 10575 10577 10578 10579 10580 10581 10582 10583 10583 10584 10584 10585 10585 10586 10586 10586 10586 10586 10586 10586 10585 10585 10584 10582 10581 10579 10578 10575 10573 10571 10569 10567 10565 10563 10560 10557 10555 10551 10548 10544 10541 10537 10533 10529 10525 10521 10518 10514 10510 10506 10502 10497 10493 10490 10487 10484 10480 10478 10475 10473 10471 10469 10467 10466 10465 10463 10462 10461 10459 10458 10457 10456 10455 10454 10454 10454 10454 10454 10455 10455 10453
10566 10567 10567 10568 10569 10570 10571 10573 10574 10575 10576 10577 10578 10578 10579 10579 10580 10581 10581 10581 10581 10581 10581 10581 10581 10580 10579 10578 10577 10575 10573 10571 10569 10566 10564 10561 10559 10557 10555 10552 10549 10546 10543 10539 10535 10532 10527 10523 10519 10515 10511 10507 10503 10499 10495 10490 10486 10483 10479 10475 10472 10469 10465 10462 10459 10457 10455 10452 10450 10449 10447 10446 10444 10443 10441 10440 10439 10438 10437 10436 10436 10436 10436 10436 10436 10436 10434
10562 10562 10563 10564 10565 10566 10567 10569 10570 10571 10572 10573 10573 10574 10574 10575 10576 10576 10576 10576 10575 10575 10575 10575 10574 10573 10572 10571 10569 10567 10565 10563 10560 10557 10555 10552 10550 10547 10544 10541 10538 10534 10531 10527 10523 10519 10514 10509 10505 10501 10497 10494 10490 10485 10480 10475 10472 10469 10466 10462 10459 10455 10451 10447 10444 10442 10439 10437 10435 10433 10431 10430 10428 10427 10426 10425 10424 10422 10421 10421 10420 10420 10419 10419 10419 10419 10418
10558 10558 10559 10560 10562 10563 10564 10566 10567 10567 10568 10568 10569 10569 10570 10571 10571 10571 10571 10570 10570 10570 10569 10569 10568 10566 10565 10563 10561 10559 10556 10554 10551 10549 10546 10544 10541 10538 10534 10530 10526 10523 10519 10515 10510 10505 10500 10495 10491 10488 10484 10480 10475 10470 10466 10462 10458 10455 10453 10450 10446 10442 10439 10434 10431 10428 10426 10423 10421 10419 10417 10415 10414 10413 10412 10411 10410 10408 10407 10406 10406 10405 10405 10404 10404 10404 10404
10554 10555 10556 10557 10558 10560 10561 10562 10563 10563 10563 10564 10564 10565 10566 10566 10566 10566 10565 10565 10564 10563 10563 10562 10560 10559 10557 10554 10552 10550 10548 10545 10543 10540 10538 10535 10531 10528 10524 10520 10515 10511 10507 10502 10497 10492 10487 10482 10478 10475 10471 10467 10462 10457 10453 10449 10446 10443 10440 10437 10434 10430 10427 10423 10419 10416 10414 10411 10409 10407 10404 10403 10401 10400 10399 10398 10397 10396 10395 10394 10393 10392 10392 10391 10391 10391 10390
10550 10551 10553 10554 10555 10556 10557 10558 10558 10558 10559 10559 10560 10560 10561 10561 10561 10560 10560 10559 10558 10557 10556 10554 10553 10551 10549 10546 10544 10542 10540 10537 10534 10531 10528 10525 10522 10518 10514 10509 10505 10500 10496 10491 10486 10480 10475 10470 10466 10462 10458 10454 10449 10444 10440 10437 10434 10432 10429 10425 10422 10419 10415 10412 10409 10406 10403 10400 10398 10395 10393 10391 10390 10389 10388 10387 10386 10384 10383 10383 10382 10381 10380 10380 10379 10379 10378
10547 10548 10549 10550 10551 10552 10553 10553 10553 10554 10554 10555 10555 10555 10555 10556 10556 10555 10554 10553 10552 10551 10549 10547 10545 10543 10541 10538 10536 10533 10531 10528 10525 10522 10519 10516 10512 10508 10504 10499 10494 10490 10485 10479 10474 10469 10463 10459 10454 10451 10447 10443 10438 10433 10429 10426 10423 10420 10417 10414 10411 10408 10405 10402 10399 10396 10393 10391 10388 10386 10383 10382 10380 10379 10378 10377 10376 10374 10373 10372 10371 10371 10370 10370 10369 10368 10368
10543 10544 10545 10546 10548 10548 10548 10548 10549 10549 10550 10550 10550 10550 10550 10550 10550 10550 10549 10548 10546 10544 10542 10540 10538 10535 10533 10530 10528 10525 10522 10520 10517 10514 10511 10507 10503 10499 10494 10489 10484 10479 10474 10469 10463 10458 10453 10448 10444 10440 10436 10433 10428 10424 10420 10416 10413 10410 10407 10404 10401 10398 10396 10393 10390 10387 10384 10382 10379 10377 10375 10373 10371 10370 10369 10368 10367 10366 10364 10363 10362 10361 10361 10360 10360 10359 10359